DW6222 Weather Reports


Display with metric or nautical units.
time (UTC)temp
F
wind
direction
speed
MPH
gust
MPH
rain 1hr
in
rain 24hr
in
rain mn
in
humidity
%
barometer
mb
20260503173039 58 294 19.0 26.0 0.00 0.00 0.00 54 1002.0
20260503171537 57 303 19.0 25.0 0.00 0.00 0.00 55 1001.9
20260503081538 45 57 1.0 6.0 0.00 0.00 0.00 79 1004.2
20260503071545 46 182 5.0 10.0 0.00 0.00 0.00 76 1004.7
20260503060107 47 286 11.0 15.0 0.00 0.00 0.00 70 1005.1
20260503054544 48 284 12.0 14.0 0.00 0.00 0.00 68 1005.6
20260503053039 49 304 10.0 14.0 0.00 0.00 0.00 71 1005.6
20260503051539 51 324 13.0 21.0 0.00 0.00 0.00 67 1005.6
20260503050039 52 311 15.0 19.0 0.00 0.00 0.00 64 1005.6
20260503044542 46 302 3.0 10.0 0.00 0.00 0.00 73 1005.7
20260503043045 44 0 0.0 3.0 0.00 0.00 0.00 72 1005.6
20260503041544 44 209 1.0 4.0 0.00 0.00 0.00 72 1005.6
20260503040042 43 202 3.0 5.0 0.00 0.00 0.00 74 1005.7
20260503034538 43 202 2.0 4.0 0.00 0.00 0.00 75 1005.8
20260503033054 43 202 0.0 3.0 0.00 0.00 0.00 75 1006.0
20260503031543 43 0 0.0 4.0 0.00 0.00 0.00 77 1006.2
20260503030043 44 165 2.0 4.0 0.00 0.00 0.00 74 1006.5
20260503024544 45 165 1.0 4.0 0.00 0.00 0.00 67 1006.7
20260503023037 45 0 0.0 1.0 0.00 0.00 0.00 62 1006.8
20260503021537 44 0 0.0 2.0 0.00 0.00 0.00 65 1007.0
20260503020045 44 319 1.0 2.0 0.00 0.00 0.00 65 1007.0
20260503014544 43 319 1.0 3.0 0.00 0.00 0.00 67 1007.1
20260503013050 43 319 2.0 3.0 0.00 0.00 0.00 68 1007.2
20260503011547 43 0 0.0 3.0 0.00 0.00 0.00 67 1007.3
20260503010115 43 319 2.0 4.0 0.00 0.00 0.00 65 1007.4
20260503004545 43 310 2.0 4.0 0.00 0.00 0.00 68 1007.6
20260503003044 42 341 4.0 5.0 0.00 0.00 0.00 72 1007.8
20260503001543 43 328 0.0 3.0 0.00 0.00 0.00 71 1008.0
20260503000043 42 344 2.0 6.0 0.00 0.00 0.00 75 1008.2
20260502234546 44 309 1.0 4.0 0.00 0.00 0.00 68 1008.6
20260502233047 44 304 2.0 4.0 0.00 0.00 0.00 69 1008.5
20260502231546 46 355 3.0 6.0 0.00 0.00 0.00 67 1008.5
20260502230045 50 321 3.0 10.0 0.00 0.00 0.00 51 1008.6
20260502224544 48 107 2.0 8.0 0.00 0.00 0.00 48 1008.7
20260502223046 51 282 3.0 7.0 0.00 0.00 0.00 49 1009.1
20260502221545 52 90 6.0 11.0 0.00 0.00 0.00 38 1009.2
20260502220049 52 128 6.0 12.0 0.00 0.00 0.00 39 1009.4
20260502214559 52 117 7.0 11.0 0.00 0.00 0.00 38 1009.4
20260502213044 51 119 8.0 13.0 0.00 0.00 0.00 39 1009.6
20260502211547 52 109 8.0 12.0 0.00 0.00 0.00 38 1009.9
20260502210048 52 90 9.0 13.0 0.00 0.00 0.00 37 1010.1
20260502204541 51 119 10.0 16.0 0.00 0.00 0.00 38 1010.3
20260502203059 51 117 9.0 14.0 0.00 0.00 0.00 39 1010.5
20260502201548 52 122 12.0 16.0 0.00 0.00 0.00 37 1010.8
20260502200045 51 101 9.0 15.0 0.00 0.00 0.00 41 1011.1
20260502194543 52 131 10.0 14.0 0.00 0.00 0.00 38 1011.4
20260502193046 52 128 9.0 13.0 0.00 0.00 0.00 42 1011.5
20260502191541 52 115 12.0 15.0 0.00 0.00 0.00 40 1011.7
20260502190038 51 98 5.0 12.0 0.00 0.00 0.00 42 1011.9
20260502184545 51 161 2.0 5.0 0.00 0.00 0.00 43 1012.0
20260502183044 48 300 2.0 9.0 0.00 0.00 0.00 55 1012.4
20260502181543 52 96 6.0 11.0 0.00 0.00 0.00 40 1012.8